This demonstration page uses our WeatherBlox Daily Observations layout. Learn more.

Left ArrowRight Arrow

Hourly Observations for October 1, 2022

Temp ( °F °C ) Dew Point ( °F °C ) Humidity (%) Winds ( mph kmh ) Pressure ( in mb ) Visibility ( mi km ) Precip ( " mm )
12:15 am 00:15 Clear 48 8.9 43 6.2 83 83 ENE 7 11 30.14 1021 10 16 0.00 0.00
12:35 am 00:35 Clear 48 9.1 43 5.9 80 80 NE 6 9 30.14 1021 10 16 0.00 0.00
12:55 am 00:55 Clear 47 8.5 42 5.5 81 81 NE 6 9 30.14 1021 10 16 0.00 0.00
1:15 am 01:15 Clear 47 8.3 42 5.5 82 82 NE 6 9 30.14 1021 10 16 0.00 0.00
1:35 am 01:35 Clear 46 8 42 5.3 83 83 NE 7 11 30.13 1020 10 16 0.00 0.00
1:55 am 01:55 Clear 46 8 42 5.5 84 84 NE 7 11 30.13 1020 10 16 0.00 0.00
2:15 am 02:15 Clear 46 7.6 42 5.5 87 87 NE 6 9 30.13 1020 10 16 0.00 0.00
2:35 am 02:35 Clear 44 6.5 41 5.1 91 91 NNE 6 9 30.13 1020 10 16 0.00 0.00
2:55 am 02:55 Clear 43 6.3 41 5 91 91 NNE 6 9 30.13 1020 10 16 0.00 0.00
3:15 am 03:15 Clear 42 5.7 40 4.6 93 93 N 6 9 30.14 1021 10 16 0.00 0.00
3:35 am 03:35 Clear 42 5.5 40 4.6 94 94 N 7 11 30.14 1021 10 16 0.00 0.00
3:55 am 03:55 Clear 42 5.5 40 4.6 94 94 N 6 9 30.14 1021 10 16 0.00 0.00
4:15 am 04:15 Clear 42 5.3 40 4.7 96 96 NNE 6 9 30.14 1021 10 16 0.00 0.00
4:35 am 04:35 Clear 42 5.5 40 4.7 95 95 NNE 5 7 30.14 1021 10 16 0.00 0.00
4:55 am 04:55 Clear 42 5.5 40 4.7 95 95 NNE 6 9 30.14 1021 10 16 0.00 0.00
5:15 am 05:15 Clear 42 5.6 40 4.7 94 94 N 5 7 30.14 1021 10 16 0.00 0.00
5:35 am 05:35 Clear 42 5.6 41 4.9 95 95 N 6 9 30.14 1021 10 16 0.00 0.00
5:55 am 05:55 Clear 43 6.1 41 5.2 94 94 NNE 6 9 30.13 1020 10 16 0.00 0.00
6:15 am 06:15 Clear 43 6.1 42 5.3 95 95 N 7 11 30.15 1021 10 16 0.00 0.00
6:35 am 06:35 Clear 44 6.5 42 5.5 93 93 NNE 7 11 30.14 1021 10 16 0.00 0.00
6:55 am 06:55 Clear 44 6.7 42 5.7 93 93 NNE 6 9 30.14 1021 10 16 0.00 0.00
7:15 am 07:15 Clear 44 6.7 42 5.8 94 94 NNE 6 9 30.14 1021 10 16 0.00 0.00
7:35 am 07:35 Clear 44 6.7 42 5.8 94 94 N 6 9 30.14 1021 10 16 0.00 0.00
7:55 am 07:55 Sunny 44 6.7 43 6 95 95 N 6 9 30.15 1021 10 16 0.00 0.00
8:15 am 08:15 Sunny 45 7 43 6 93 93 N 7 11 30.15 1021 10 16 0.00 0.00
8:35 am 08:35 Sunny 46 7.6 44 6.6 93 93 N 7 11 30.16 1021 10 16 0.00 0.00
8:55 am 08:55 Sunny 47 8.6 45 7.1 90 90 N 6 9 30.15 1021 10 16 0.00 0.00
9:15 am 09:15 Sunny 50 10 46 7.7 86 86 NNE 9 15 30.15 1021 10 16 0.00 0.00
9:35 am 09:35 Sunny 52 11.1 47 8.2 82 82 NNE 8 13 30.16 1021 10 16 0.00 0.00
9:55 am 09:55 Sunny 54 12.2 47 8.5 78 78 N 8 13 30.14 1021 10 16 0.00 0.00
10:15 am 10:15 Sunny 56 13.5 47 8.2 70 70 NNE 8 13 30.15 1021 10 16 0.00 0.00
10:35 am 10:35 Sunny 58 14.3 46 7.7 64 64 N 9 15 30.15 1021 10 16 0.00 0.00
10:55 am 10:55 Sunny 59 15 44 6.7 58 58 NNE 10 17 30.14 1021 10 16 0.00 0.00
11:15 am 11:15 Sunny 61 16 44 6.4 53 53 NNE 9 15 30.14 1021 10 16 0.00 0.00
11:35 am 11:35 Sunny 62 16.5 42 5.6 48 48 NNE 10 17 30.14 1021 10 16 0.00 0.00
11:55 am 11:55 Sunny 64 17.6 40 4.6 42 42 NNE 12 19 30.14 1020 10 16 0.00 0.00
12:15 pm 12:15 Sunny 65 18.2 41 4.9 41 41 NE 12 19 30.13 1020 10 16 0.00 0.00
12:35 pm 12:35 Sunny 65 18.4 42 5.7 43 43 NNE 10 17 30.12 1020 10 16 0.00 0.00
12:55 pm 12:55 Sunny 66 19 43 6.3 43 43 NNE 13 20 30.12 1020 10 16 0.00 0.00
1:15 pm 13:15 Sunny 68 19.9 43 6.1 41 41 ENE 13 20 30.12 1020 10 16 0.00 0.00
1:35 pm 13:35 Sunny 69 20.5 42 5.7 38 38 NNE 10 17 30.10 1019 10 16 0.00 0.00
1:55 pm 13:55 Sunny 70 21 41 5 35 35 N 10 17 30.10 1019 10 16 0.00 0.00
2:15 pm 14:15 Sunny 70 21.2 38 3.3 31 31 NE 10 17 30.10 1019 10 16 0.00 0.00
2:35 pm 14:35 Sunny 70 21.2 39 4 32 32 NNE 13 20 30.08 1019 10 16 0.00 0.00
2:55 pm 14:55 Sunny 71 21.5 38 3.5 31 31 N 12 19 30.08 1019 10 16 0.00 0.00
3:15 pm 15:15 Sunny 72 22.2 38 3.6 30 30 NE 16 26 30.08 1019 10 16 0.00 0.00
3:35 pm 15:35 Sunny 72 22.3 38 3.2 29 29 NNE 14 22 30.07 1018 10 16 0.00 0.00
3:55 pm 15:55 Sunny 73 22.5 38 3.3 28 28 NNE 10 17 30.07 1018 10 16 0.00 0.00
4:15 pm 16:15 Sunny 73 22.5 37 3 28 28 NE 15 24 30.07 1018 10 16 0.00 0.00
4:35 pm 16:35 Sunny 73 22.5 39 3.8 29 29 NNE 15 24 30.07 1018 10 16 0.00 0.00
4:55 pm 16:55 Sunny 73 22.5 40 4.7 31 31 NNE 16 26 30.07 1018 10 16 0.00 0.00
5:15 pm 17:15 Sunny 72 22.1 41 5 33 33 N 15 24 30.07 1018 10 16 0.00 0.00
5:35 pm 17:35 Sunny 71 21.6 41 5.2 34 34 N 13 20 30.07 1018 10 16 0.00 0.00
5:55 pm 17:55 Sunny 70 21.3 42 5.3 35 35 N 12 19 30.07 1018 10 16 0.00 0.00
6:15 pm 18:15 Sunny 69 20.8 41 5.1 36 36 NNE 14 22 30.08 1019 10 16 0.00 0.00
6:35 pm 18:35 Sunny 68 20.1 42 5.4 38 38 NNE 9 15 30.09 1019 10 16 0.00 0.00
6:55 pm 18:55 Sunny 66 19.1 41 5.1 40 40 N 10 17 30.09 1019 10 16 0.00 0.00
7:15 pm 19:15 Sunny 64 17.8 42 5.6 45 45 N 8 13 30.10 1019 10 16 0.00 0.00
7:35 pm 19:35 Clear 60 15.7 43 6.1 53 53 N 7 11 30.12 1020 10 16 0.00 0.00
7:55 pm 19:55 Clear 59 14.9 44 6.5 57 57 N 7 11 30.12 1020 10 16 0.00 0.00
8:15 pm 20:15 Clear 57 13.8 44 6.8 63 63 N 7 11 30.14 1021 10 16 0.00 0.00
8:35 pm 20:35 Clear 56 13.5 44 6.8 64 64 N 7 11 30.14 1021 10 16 0.00 0.00
8:55 pm 20:55 Clear 55 12.9 44 6.8 66 66 N 7 11 30.14 1021 10 16 0.00 0.00
9:15 pm 21:15 Clear 54 12.4 44 6.8 69 69 N 7 11 30.14 1021 10 16 0.00 0.00
9:35 pm 21:35 Clear 55 12.5 44 6.5 67 67 N 8 13 30.15 1021 10 16 0.00 0.00
9:55 pm 21:55 Clear 55 13 42 5.8 62 62 N 8 13 30.15 1021 10 16 0.00 0.00
10:15 pm 22:15 Clear 54 12 42 5.5 64 64 N 5 7 30.16 1021 10 16 0.00 0.00
10:35 pm 22:35 Clear 53 11.4 42 5.5 67 67 N 6 9 30.17 1022 10 16 0.00 0.00
10:55 pm 22:55 Clear 51 10.7 42 5.4 70 70 N 6 9 30.17 1022 10 16 0.00 0.00
11:15 pm 23:15 Clear 51 10.4 42 5.4 71 71 N 6 9 30.17 1022 10 16 0.00 0.00
11:35 pm 23:35 Clear 50 10.2 42 5.5 73 73 N 6 9 30.18 1022 10 16 0.00 0.00
11:55 pm 23:55 Clear 50 9.8 42 5.5 75 75 N 6 9 30.18 1022 10 16 0.00 0.00

Powered by AerisWeather